User: anonymous   Login
Location: Betpouey
(42.8833°N, 0.0333°E)
Time: 17:59:14
(UTC+00:00)
Language:

FENGYUN 1C DEB - Orbit

View from above orbital plane
View from above orbital plane
View from above satellite
View from above satellite

Ground track
Ground track

The orbit data is extracted from the following two-line orbital elements,

1 31466U 99025BVE 21170.40814549 -.00000025  00000-0  11034-4 0  9992
2 31466  99.1910  37.0528 0305064 276.4688  80.1839 14.16525610732333
Epoch (UTC): 19 June 2021 09:47:43
Eccentricity: 0.0305064
inclination: 99.1910°
perigee height: 617 km
apogee height: 1057 km
right ascension of ascending node: 37.0528°
argument of perigee: 276.4688°
revolutions per day: 14.16525610
mean anomaly at epoch: 80.1839°
orbit number at epoch: 73233

The dashed part of the orbit path shows where the satellite is in the earth's shadow,  

DLR